Location: Melbourne
(37.8170°S, 144.9670°E)
Time: 15:56:40
(UTC+10:00)

Vanguard 1 Rocket - Visible Passes

Search period start: 30 September 2014 00:00
Search period end: 10 October 2014 01:00
Orbit: 653 x 4227 km, 34.3° (Epoch: 28 September)

Date Brightness Start Highest point End Pass type
(mag) Time Alt. Az. Time Alt. Az. Time Alt. Az.
30 Sep 10.6 00:11:11 10° W 00:28:47 49° W 00:28:47 49° W visible
30 Sep 10.5 20:24:39 10° WNW 20:48:51 80° N 21:04:30 33° E visible
30 Sep 10.2 22:56:07 10° W 23:21:48 74° NNW 23:21:48 74° NNW visible
01 Oct 11.2 01:30:40 10° WSW 01:39:06 24° W 01:39:06 24° W visible
01 Oct 10.6 19:12:16 10° WNW 19:33:44 73° NNE 19:57:27 15° E visible
01 Oct 10.3 21:41:50 10° W 22:07:47 80° N 22:14:45 60° ENE visible
02 Oct 10.6 00:14:50 10° WSW 00:32:03 46° WNW 00:32:03 46° WNW visible
02 Oct 10.5 20:28:25 10° W 20:52:25 81° N 21:07:40 35° E visible
02 Oct 10.3 22:59:49 10° W 23:24:58 69° NW 23:24:58 69° NW visible
03 Oct 11.3 01:34:37 10° WSW 01:42:15 22° W 01:42:15 22° W visible
03 Oct 10.6 19:15:57 10° WNW 19:37:11 77° NNE 20:00:33 16° E visible
03 Oct 10.3 21:45:37 10° W 22:11:19 78° NNW 22:17:50 61° NE visible
04 Oct 10.8 00:18:32 10° WSW 00:35:08 42° WNW 00:35:08 42° WNW visible
04 Oct 10.5 20:32:15 10° W 20:56:01 81° N 21:10:42 37° ENE visible
04 Oct 10.3 23:03:32 10° W 23:27:59 64° NW 23:27:59 64° NW visible
05 Oct 11.4 01:38:53 10° W 01:45:16 19° W 01:45:16 19° W visible
05 Oct 10.6 20:19:46 10° WNW 20:40:43 80° N 21:03:32 18° E visible
05 Oct 10.3 22:49:24 10° W 23:14:47 74° NNW 23:20:49 61° NE visible
06 Oct 10.9 01:22:23 10° WSW 01:38:07 37° WNW 01:38:07 37° WNW visible
06 Oct 10.5 21:36:07 10° W 21:59:35 80° N 22:13:39 39° ENE visible
07 Oct 10.4 00:07:16 10° WSW 00:30:56 57° NW 00:30:56 57° NW visible
07 Oct 11.5 02:43:42 10° W 02:48:14 15° W 02:48:14 15° W visible
07 Oct 10.6 20:23:39 10° W 20:44:19 81° N 21:06:29 19° E visible
07 Oct 10.3 22:53:12 10° W 23:18:07 69° NNW 23:23:46 60° NNE visible
08 Oct 11.0 01:26:25 10° WSW 01:41:03 32° WNW 01:41:03 32° WNW visible
08 Oct 10.5 19:11:59 10° WNW 19:29:35 77° NNE 19:56:10 10° E visible
08 Oct 10.5 21:40:00 10° W 22:03:07 77° NNW 22:16:36 40° ENE visible
09 Oct 10.6 00:11:06 10° WSW 00:33:53 51° NW 00:33:53 51° NW visible
09 Oct 11.6 02:49:26 10° W 02:51:10 12° W 02:51:10 12° W visible
09 Oct 10.6 20:27:35 10° W 20:47:57 81° N 21:09:26 21° ENE visible
09 Oct 10.4 22:57:01 10° W 23:21:21 64° NNW 23:26:43 57° N visible
